Time,TemperatureF,DewpointF,PressureIn,WindDirection,WindDirectionDegrees,WindSpeedMPH,WindSpeedGustMPH,Humidity,HourlyPrecipIn,Conditions,Clouds,dailyrainin,SoftwareType,DateUTC
2013-09-24 08:20:00,66.0,37.5,30.16,NNE,16,2.0,2.0,35,0.00,,,0.00,Wunderground v.1.15,2013-09-24 15:20:00,
2013-09-24 08:25:00,66.4,37.2,30.16,NE,39,2.0,2.0,34,0.00,,,0.00,Wunderground v.1.15,2013-09-24 15:25:00,
2013-09-24 08:30:00,66.9,36.8,30.16,NE,46,1.0,1.0,33,0.00,,,0.00,Wunderground v.1.15,2013-09-24 15:30:00,
2013-09-24 08:40:00,68.1,37.9,30.17,North,353,1.0,1.0,33,0.00,,,0.00,Wunderground v.1.15,2013-09-24 15:40:00,
2013-09-24 08:45:00,68.5,37.5,30.16,NNE,19,1.0,1.0,32,0.00,,,0.00,Wunderground v.1.15,2013-09-24 15:45:00,
2013-09-24 08:55:00,69.4,38.2,30.17,North,360,1.0,1.0,32,0.00,,,0.00,Wunderground v.1.15,2013-09-24 15:55:00,
2013-09-24 09:00:00,70.0,37.1,30.17,North,6,1.0,2.0,30,0.00,,,0.00,Wunderground v.1.15,2013-09-24 16:00:00,
2013-09-24 09:10:00,70.3,38.2,30.17,ESE,108,1.0,1.0,31,0.00,,,0.00,Wunderground v.1.15,2013-09-24 16:10:00,
2013-09-24 09:15:00,70.4,38.3,30.17,NNE,25,1.0,1.0,31,0.00,,,0.00,Wunderground v.1.15,2013-09-24 16:15:00,
2013-09-24 09:25:00,70.9,37.0,30.16,East,96,1.0,1.0,29,0.00,,,0.00,Wunderground v.1.15,2013-09-24 16:25:00,
2013-09-24 09:30:00,71.4,38.3,30.17,East,83,1.0,2.0,30,0.00,,,0.00,Wunderground v.1.15,2013-09-24 16:30:00,
2013-09-24 09:40:00,71.9,37.9,30.16,South,179,1.0,1.0,29,0.00,,,0.00,Wunderground v.1.15,2013-09-24 16:40:00,
2013-09-24 09:45:00,72.6,38.5,30.16,ENE,68,1.0,1.0,29,0.00,,,0.00,Wunderground v.1.15,2013-09-24 16:45:00,
2013-09-24 09:55:00,73.4,38.3,30.16,NE,42,1.0,1.0,28,0.00,,,0.00,Wunderground v.1.15,2013-09-24 16:55:00,
2013-09-24 10:00:00,73.7,38.6,30.16,ENE,70,1.0,2.0,28,0.00,,,0.00,Wunderground v.1.15,2013-09-24 17:00:00,
2013-09-24 10:10:00,74.2,39.0,30.16,SE,136,1.0,1.0,28,0.00,,,0.00,Wunderground v.1.15,2013-09-24 17:10:00,
2013-09-24 10:15:00,74.5,38.3,30.16,North,5,1.0,1.0,27,0.00,,,0.00,Wunderground v.1.15,2013-09-24 17:15:00,
2013-09-24 10:25:00,75.3,38.0,30.15,NNE,27,1.0,1.0,26,0.00,,,0.00,Wunderground v.1.15,2013-09-24 17:25:00,
2013-09-24 10:30:00,75.3,39.9,30.15,ENE,58,1.0,2.0,28,0.00,,,0.00,Wunderground v.1.15,2013-09-24 17:30:00,
2013-09-24 10:40:00,75.9,38.5,30.15,SE,135,1.0,2.0,26,0.00,,,0.00,Wunderground v.1.15,2013-09-24 17:40:00,
2013-09-24 10:45:00,76.4,36.9,30.15,ENE,65,1.0,2.0,24,0.00,,,0.00,Wunderground v.1.15,2013-09-24 17:45:00,
2013-09-24 10:55:00,76.3,37.9,30.15,SSE,155,1.0,2.0,25,0.00,,,0.00,Wunderground v.1.15,2013-09-24 17:55:00,
2013-09-24 11:00:00,76.6,39.1,30.15,South,176,2.0,2.0,26,0.00,,,0.00,Wunderground v.1.15,2013-09-24 18:00:00,
2013-09-24 11:10:00,77.8,41.1,30.14,East,92,1.0,2.0,27,0.00,,,0.00,Wunderground v.1.15,2013-09-24 18:10:00,
2013-09-24 11:15:00,77.7,38.0,30.14,NNE,32,1.0,2.0,24,0.00,,,0.00,Wunderground v.1.15,2013-09-24 18:15:00,
2013-09-24 11:25:00,77.9,38.2,30.14,ENE,77,1.0,3.0,24,0.00,,,0.00,Wunderground v.1.15,2013-09-24 18:25:00,
2013-09-24 11:30:00,78.2,39.5,30.13,SSE,160,1.0,1.0,25,0.00,,,0.00,Wunderground v.1.15,2013-09-24 18:30:00,
2013-09-24 11:40:00,79.6,37.4,30.13,ENE,77,1.0,1.0,22,0.00,,,0.00,Wunderground v.1.15,2013-09-24 18:40:00,
2013-09-24 11:45:00,80.2,39.0,30.13,SW,217,1.0,2.0,23,0.00,,,0.00,Wunderground v.1.15,2013-09-24 18:45:00,
2013-09-24 11:55:00,80.7,39.4,30.12,ESE,120,2.0,5.0,23,0.00,,,0.00,Wunderground v.1.15,2013-09-24 18:55:00,
2013-09-24 12:00:00,80.7,38.3,30.12,SE,140,2.0,2.0,22,0.00,,,0.00,Wunderground v.1.15,2013-09-24 19:00:00,
2013-09-24 12:10:00,82.5,39.8,30.11,NW,319,2.0,2.0,22,0.00,,,0.00,Wunderground v.1.15,2013-09-24 19:10:00,
2013-09-24 12:15:00,83.5,39.4,30.11,South,181,1.0,3.0,21,0.00,,,0.00,Wunderground v.1.15,2013-09-24 19:15:00,
2013-09-24 12:25:00,83.6,38.3,30.10,ENE,61,2.0,4.0,20,0.00,,,0.00,Wunderground v.1.15,2013-09-24 19:25:00,
2013-09-24 12:30:00,83.7,39.6,30.10,SSE,164,2.0,2.0,21,0.00,,,0.00,Wunderground v.1.15,2013-09-24 19:30:00,
2013-09-24 12:40:00,83.7,39.6,30.09,WSW,252,2.0,2.0,21,0.00,,,0.00,Wunderground v.1.15,2013-09-24 19:40:00,
2013-09-24 12:45:00,84.2,40.0,30.09,ENE,63,2.0,2.0,21,0.00,,,0.00,Wunderground v.1.15,2013-09-24 19:45:00,
2013-09-24 12:55:00,85.1,40.8,30.08,SSE,167,2.0,2.0,21,0.00,,,0.00,Wunderground v.1.15,2013-09-24 19:55:00,
2013-09-24 13:00:00,85.7,41.3,30.08,SE,144,2.0,4.0,21,0.00,,,0.00,Wunderground v.1.15,2013-09-24 20:00:00,
2013-09-24 13:10:00,85.9,34.5,30.07,SSW,199,4.0,9.0,16,0.00,,,0.00,Wunderground v.1.15,2013-09-24 20:10:00,
2013-09-24 13:15:00,85.7,29.2,30.07,South,172,7.0,9.0,13,0.00,,,0.00,Wunderground v.1.15,2013-09-24 20:15:00,
2013-09-24 13:25:00,86.1,31.3,30.06,SE,145,6.0,7.0,14,0.00,,,0.00,Wunderground v.1.15,2013-09-24 20:25:00,
2013-09-24 13:30:00,86.1,33.0,30.06,SSE,165,6.0,6.0,15,0.00,,,0.00,Wunderground v.1.15,2013-09-24 20:30:00,
2013-09-24 13:40:00,85.8,31.1,30.05,SW,221,7.0,8.0,14,0.00,,,0.00,Wunderground v.1.15,2013-09-24 20:40:00,
2013-09-24 13:45:00,86.2,29.6,30.05,SSE,148,7.0,8.0,13,0.00,,,0.00,Wunderground v.1.15,2013-09-24 20:45:00,
2013-09-24 13:55:00,86.3,31.5,30.05,South,173,6.0,7.0,14,0.00,,,0.00,Wunderground v.1.15,2013-09-24 20:55:00,
2013-09-24 14:00:00,86.4,27.8,30.04,SSW,212,6.0,7.0,12,0.00,,,0.00,Wunderground v.1.15,2013-09-24 21:00:00,
2013-09-24 14:10:00,86.7,28.0,30.04,South,185,7.0,7.0,12,0.00,,,0.00,Wunderground v.1.15,2013-09-24 21:10:00,
2013-09-24 14:15:00,86.5,27.8,30.04,SE,127,6.0,7.0,12,0.00,,,0.00,Wunderground v.1.15,2013-09-24 21:15:00,
2013-09-24 14:25:00,86.9,30.1,30.04,SSE,168,5.0,6.0,13,0.00,,,0.00,Wunderground v.1.15,2013-09-24 21:25:00,
2013-09-24 14:30:00,87.3,32.3,30.03,SE,139,5.0,5.0,14,0.00,,,0.00,Wunderground v.1.15,2013-09-24 21:30:00,
2013-09-24 14:40:00,87.1,33.8,30.03,South,174,6.0,6.0,15,0.00,,,0.00,Wunderground v.1.15,2013-09-24 21:40:00,
2013-09-24 14:45:00,86.9,32.0,30.03,South,185,6.0,6.0,14,0.00,,,0.00,Wunderground v.1.15,2013-09-24 21:45:00,
2013-09-24 15:00:00,86.6,35.1,30.02,SSW,200,7.0,11.0,16,0.00,,,0.00,Wunderground v.1.15,2013-09-24 22:00:00,
2013-09-24 15:10:00,86.6,35.1,30.02,South,191,5.0,7.0,16,0.00,,,0.00,Wunderground v.1.15,2013-09-24 22:10:00,
2013-09-24 15:15:00,86.5,35.0,30.02,SSE,157,6.0,8.0,16,0.00,,,0.00,Wunderground v.1.15,2013-09-24 22:15:00,
2013-09-24 15:25:00,86.3,36.3,30.02,SSE,159,6.0,7.0,17,0.00,,,0.00,Wunderground v.1.15,2013-09-24 22:25:00,
2013-09-24 15:30:00,86.1,36.2,30.02,SE,146,6.0,6.0,17,0.00,,,0.00,Wunderground v.1.15,2013-09-24 22:30:00,
2013-09-24 15:40:00,86.3,36.3,30.01,South,189,5.0,5.0,17,0.00,,,0.00,Wunderground v.1.15,2013-09-24 22:40:00,
2013-09-24 15:45:00,86.1,36.2,30.01,SSW,197,6.0,8.0,17,0.00,,,0.00,Wunderground v.1.15,2013-09-24 22:45:00,
2013-09-24 15:55:00,85.9,36.0,30.01,South,173,6.0,9.0,17,0.00,,,0.00,Wunderground v.1.15,2013-09-24 22:55:00,
2013-09-24 16:00:00,85.9,36.0,30.01,SE,141,6.0,9.0,17,0.00,,,0.00,Wunderground v.1.15,2013-09-24 23:00:00,
2013-09-24 16:10:00,85.6,37.2,30.01,South,181,7.0,7.0,18,0.00,,,0.00,Wunderground v.1.15,2013-09-24 23:10:00,
2013-09-24 16:15:00,85.6,35.8,30.01,SW,228,6.0,8.0,17,0.00,,,0.00,Wunderground v.1.15,2013-09-24 23:15:00,
2013-09-24 16:25:00,85.5,37.1,30.01,South,177,6.0,7.0,18,0.00,,,0.00,Wunderground v.1.15,2013-09-24 23:25:00,
2013-09-24 16:30:00,85.7,37.3,30.00,South,186,4.0,4.0,18,0.00,,,0.00,Wunderground v.1.15,2013-09-24 23:30:00,
2013-09-24 16:40:00,85.0,36.7,30.00,South,169,6.0,6.0,18,0.00,,,0.00,Wunderground v.1.15,2013-09-24 23:40:00,
2013-09-24 16:45:00,84.9,35.2,30.00,South,177,6.0,7.0,17,0.00,,,0.00,Wunderground v.1.15,2013-09-24 23:45:00,
2013-09-24 16:55:00,84.7,37.9,30.00,SW,224,5.0,7.0,19,0.00,,,0.00,Wunderground v.1.15,2013-09-24 23:55:00,
2013-09-24 17:00:00,84.5,36.3,30.00,SW,217,5.0,5.0,18,0.00,,,0.00,Wunderground v.1.15,2013-09-25 00:00:00,
2013-09-24 17:06:00,84.4,37.6,30.00,SSW,212,5.0,5.0,19,0.00,,,0.00,Wunderground v.1.15,2013-09-25 00:06:00,
2013-09-24 17:15:00,83.8,35.8,30.00,SSW,211,5.0,7.0,18,0.00,,,0.00,Wunderground v.1.15,2013-09-25 00:15:00,
2013-09-24 17:25:00,83.4,35.4,30.00,SW,219,5.0,6.0,18,0.00,,,0.00,Wunderground v.1.15,2013-09-25 00:25:00,
2013-09-24 17:30:00,83.0,36.5,30.00,SSE,168,6.0,6.0,19,0.00,,,0.00,Wunderground v.1.15,2013-09-25 00:30:00,
2013-09-24 17:40:00,81.1,36.2,30.00,SW,236,3.0,4.0,20,0.00,,,0.00,Wunderground v.1.15,2013-09-25 00:40:00,
2013-09-24 17:45:00,80.1,36.6,30.00,SSW,205,3.0,4.0,21,0.00,,,0.01,Wunderground v.1.15,2013-09-25 00:45:00,
2013-09-24 17:55:00,79.1,35.8,30.00,SSW,212,4.0,5.0,21,0.00,,,0.01,Wunderground v.1.15,2013-09-25 00:55:00,
2013-09-24 18:00:00,78.6,35.4,30.00,SW,222,4.0,6.0,21,0.00,,,0.01,Wunderground v.1.15,2013-09-25 01:00:00,
2013-09-24 18:10:00,77.9,34.8,30.00,SW,223,4.0,4.0,21,0.00,,,0.01,Wunderground v.1.15,2013-09-25 01:10:00,
2013-09-24 18:15:00,77.4,35.6,30.00,SSW,195,3.0,4.0,22,0.00,,,0.01,Wunderground v.1.15,2013-09-25 01:15:00,
2013-09-24 18:25:00,76.7,35.0,30.00,SW,221,3.0,4.0,22,0.00,,,0.01,Wunderground v.1.15,2013-09-25 01:25:00,
2013-09-24 18:30:00,76.7,35.0,29.99,SSW,201,4.0,4.0,22,0.00,,,0.01,Wunderground v.1.15,2013-09-25 01:30:00,
2013-09-24 18:40:00,75.9,35.4,29.99,SW,226,3.0,3.0,23,0.00,,,0.01,Wunderground v.1.15,2013-09-25 01:40:00,
2013-09-24 18:45:00,75.3,34.9,30.00,SSW,205,2.0,3.0,23,0.00,,,0.01,Wunderground v.1.15,2013-09-25 01:45:00,
2013-09-24 18:55:00,74.9,34.6,30.00,SSW,200,2.0,2.0,23,0.00,,,0.01,Wunderground v.1.15,2013-09-25 01:55:00,
2013-09-24 19:00:00,75.0,34.7,30.00,West,261,3.0,4.0,23,0.00,,,0.01,Wunderground v.1.15,2013-09-25 02:00:00,
2013-09-24 19:10:00,74.9,34.6,30.00,SW,226,3.0,4.0,23,0.00,,,0.01,Wunderground v.1.15,2013-09-25 02:10:00,
2013-09-24 19:15:00,75.0,34.7,30.00,SW,224,3.0,5.0,23,0.00,,,0.01,Wunderground v.1.15,2013-09-25 02:15:00,
2013-09-24 19:25:00,74.9,34.6,30.00,WSW,242,3.0,3.0,23,0.00,,,0.01,Wunderground v.1.15,2013-09-25 02:25:00,
2013-09-24 19:30:00,74.3,35.2,30.00,South,191,3.0,5.0,24,0.00,,,0.01,Wunderground v.1.15,2013-09-25 02:30:00,
2013-09-24 19:40:00,74.8,34.5,30.00,SW,236,4.0,4.0,23,0.00,,,0.01,Wunderground v.1.15,2013-09-25 02:40:00,
2013-09-24 19:45:00,74.6,35.4,30.00,SW,228,4.0,4.0,24,0.00,,,0.01,Wunderground v.1.15,2013-09-25 02:45:00,
2013-09-24 19:55:00,74.2,35.1,30.00,SSW,204,4.0,5.0,24,0.00,,,0.01,Wunderground v.1.15,2013-09-25 02:55:00,
2013-09-24 20:00:00,74.2,35.1,30.00,SW,217,5.0,6.0,24,0.00,,,0.01,Wunderground v.1.15,2013-09-25 03:00:00,
2013-09-24 20:10:00,73.6,34.6,30.00,SW,221,3.0,3.0,24,0.00,,,0.01,Wunderground v.1.15,2013-09-25 03:10:00,
2013-09-24 20:15:00,73.2,34.2,30.01,SW,214,2.0,3.0,24,0.00,,,0.01,Wunderground v.1.15,2013-09-25 03:15:00,
2013-09-24 20:25:00,73.0,34.1,30.01,WSW,239,3.0,3.0,24,0.00,,,0.01,Wunderground v.1.15,2013-09-25 03:25:00,
2013-09-24 20:30:00,72.9,34.0,30.00,WSW,238,2.0,2.0,24,0.00,,,0.01,Wunderground v.1.15,2013-09-25 03:30:00,
2013-09-24 20:40:00,72.8,33.9,30.00,WSW,250,3.0,3.0,24,0.00,,,0.01,Wunderground v.1.15,2013-09-25 03:40:00,
2013-09-24 20:45:00,72.9,34.0,30.00,SW,214,3.0,3.0,24,0.00,,,0.01,Wunderground v.1.15,2013-09-25 03:45:00,
2013-09-24 20:55:00,72.5,33.6,30.00,WSW,251,2.0,3.0,24,0.00,,,0.01,Wunderground v.1.15,2013-09-25 03:55:00,
2013-09-24 21:00:00,72.4,33.5,30.00,WSW,248,2.0,2.0,24,0.00,,,0.01,Wunderground v.1.15,2013-09-25 04:00:00,
2013-09-24 21:05:00,72.4,33.5,30.00,SW,221,2.0,2.0,24,0.00,,,0.01,Wunderground v.1.15,2013-09-25 04:05:00,
2013-09-24 21:10:00,72.4,33.5,30.00,WSW,257,2.0,2.0,24,0.00,,,0.01,Wunderground v.1.15,2013-09-25 04:10:00,
2013-09-24 21:15:00,72.1,33.3,30.00,SW,231,2.0,2.0,24,0.00,,,0.01,Wunderground v.1.15,2013-09-25 04:15:00,
2013-09-24 21:25:00,71.8,33.0,30.01,SW,215,3.0,4.0,24,0.00,,,0.01,Wunderground v.1.15,2013-09-25 04:25:00,
2013-09-24 21:30:00,71.1,33.5,30.01,SW,214,3.0,3.0,25,0.00,,,0.01,Wunderground v.1.15,2013-09-25 04:30:00,
2013-09-24 21:40:00,69.7,33.3,30.00,SW,223,3.0,3.0,26,0.00,,,0.01,Wunderground v.1.15,2013-09-25 04:40:00,
2013-09-24 21:45:00,69.6,33.2,30.01,SSW,211,3.0,3.0,26,0.00,,,0.01,Wunderground v.1.15,2013-09-25 04:45:00,
2013-09-24 21:55:00,69.7,32.3,30.01,SW,226,2.0,3.0,25,0.00,,,0.01,Wunderground v.1.15,2013-09-25 04:55:00,
2013-09-24 22:00:00,69.3,32.9,30.01,WSW,239,2.0,2.0,26,0.00,,,0.01,Wunderground v.1.15,2013-09-25 05:00:00,
2013-09-24 22:10:00,68.7,32.4,30.01,SW,226,2.0,2.0,26,0.00,,,0.01,Wunderground v.1.15,2013-09-25 05:10:00,
2013-09-24 22:15:00,68.6,32.3,30.01,SW,230,2.0,2.0,26,0.00,,,0.01,Wunderground v.1.15,2013-09-25 05:15:00,